Regional Weather Roundup
Issued by NWS Sioux Falls, SD

Home | Current Version | Previous Version | Graphics & Text | Print | Product List | Glossary On
Versions: 1 2 3 4 5 6 7 8 9 10 11 12 13 14 15 16 17 18 19 20 21 22 23 24 25 26 27 28 29 30 31 32 33 34 35 36 37 38 39 40 41 42 43 44 45 46 47 48 49 50
665
ASUS43 KFSD 061602
RWRFSD

WEATHER ROUNDUP FOR SE SOUTH DAKOTA/SW MINNESOTA/NW IOWA
NATIONAL WEATHER SERVICE SIOUX FALLS SD
1100 AM CDT FRI MAY 06 2016

NOTE: "FAIR" INDICATES FEW OR NO CLOUDS BELOW 12,000 FEET WITH NO
SIGNIFICANT WEATHER AND OR OBSTRUCTIONS TO VISIBILITY.


SDZ038>040-050-052>070-061700-
SOUTHEAST SOUTH DAKOTA

CITY           SKY/WX    TMP DP  RH WIND       PRES   REMARKS
BROOKINGS      SUNNY     77  52  41 SW22G29   29.82F
CHAMBERLAIN    NOT AVBL
HURON          SUNNY     79  56  45 SW9       29.82F
MADISON        FAIR      75  50  41 W22G32    29.86S
MITCHELL       SUNNY     79  52  38 SW15G22   29.86F
SIOUX FALLS    MOSUNNY   75  51  43 SW14G22   29.89F
WINNER         FAIR      78  54  43 SW16G24   29.87F
YANKTON        SUNNY     77  52  41 SW14G23   29.90S
$$

MNZ071-072-080-081-089-090-097-098-061700-
SOUTHWEST MINNESOTA

CITY           SKY/WX    TMP DP  RH WIND       PRES   REMARKS
FAIRMONT       SUNNY     79  46  31 SW18      29.89F
JACKSON        MOSUNNY   77  37  24 SW18G29   29.91S
LUVERNE        SUNNY     75  45  33 SW23      29.90F
MARSHALL       SUNNY     81  51  35 SW26G39   29.80F
MONTEVIDEO     MOSUNNY   82  50  32 W15G22    29.80F
REDWOOD FALLS  SUNNY     82  48  30 SW25G35   29.81F
TRACY          SUNNY     79  50  36 SW29G35   29.84F
WINDOM         SUNNY     79  45  29 SW21G28   29.88F
WORTHINGTON    SUNNY     77  50  38 SW23G30   29.89F
$$

IAZ001>003-012>014-020>022-031-032-NEZ013-014-SDZ071-061700-
NORTHWEST IOWA

CITY           SKY/WX    TMP DP  RH WIND       PRES   REMARKS
DENISON        SUNNY     75  46  35 SW13G20   29.97F
ESTHERVILLE    MOSUNNY   77  45  32 SW28G38   29.91F
SIOUX CITY     SUNNY     78  50  37 SW17G25   29.95F
SPENCER        SUNNY     78  44  29 SW21G28   29.92F
STORM LAKE     SUNNY     77  45  31 SW22      29.96F
$$

ABBREVIATIONS USED IN REMARKS
   TC - TEMPERATURE IN CELSIUS
  WCI - WIND CHILL INDEX
   HX - HEAT INDEX
  VSB - VISIBILITY





USA.gov is the U.S. government's official web portal to all federal, state and local government web resources and services.